Helicity
150 157 206 231 231 246 246 251 262 290 269 294 251 248 233 221 196 159 164 183 203 227 250 271 292 277 279 266 252 247 237 235 146 189 244 149 190 155 201 171 129 126 119
161 167 205 220 243 241 243 242 247 244 248 260 266 241 226 205 193 199 212 220 222 235 237 242 236 232 249 232 211 206 169 185 169 126 161 146 152 158 133 116 103 90 104
125 136 176 201 200 196 175 167 183 171 173 185 174 169 163 168 163 166 185 218 237 224 221 215 211 214 243 222 191 188 184 140 161 127 142 125 118 110 84 72 92 110 96
101 123 136 138 134 135 140 134 127 110 102 119 136 157 164 187 184 177 183 218 240 251 262 268 259 216 195 194 217 126 96 140 110 142 124 96 85 91 97 110 121 110 119
99 99 90 92 105 114 120 130 134 137 152 143 135 168 151 155 158 157 171 173 189 218 215 214 190 201 216 165 153 91 77 98 109 78 63 74 97 108 100 125 141 139 92
94 81 80 86 88 110 119 118 111 130 125 129 172 165 159 140 123 155 156 138 180 199 209 212 185 221 208 241 114 87 75 45 51 71 95 99 97 121 148 134 74 55 75
87 92 86 98 119 142 121 86 91 90 96 99 125 106 110 88 109 119 149 129 142 168 159 130 109 112 77 61 14 27 82 82 95 104 108 130 138 125 63 57 57 74 97
112 91 92 106 100 96 89 67 76 91 89 92 75 58 50 35 55 65 72 48 50 53 57 42 21 32 36 21 75 74 74 91 94 129 143 107 62 43 55 59 69 62 71
94 95 88 75 70 69 67 55 66 72 65 58 35 14 17 6 29 39 39 38 50 58 62 68 72 72 109 126 130 132 126 134 120 94 49 12 11 12 23 75 73 83 68
76 80 73 56 50 34 11 14 19 23 20 8 -16 -8 14 5 35 37 54 55 69 82 89 112 138 142 140 136 143 139 123 100 82 42 37 34 23 34 29 70 95 93 75
68 68 54 23 18 8 -3 -3 4 -9 -18 -13 4 6 10 27 36 60 73 81 93 99 111 116 115 128 125 120 114 106 81 46 33 40 50 47 47 57 68 82 87 95 94
53 46 32 5 -13 -10 -2 -2 3 4 9 11 19 21 26 41 62 60 72 85 102 106 113 127 129 99 93 89 91 71 41 33 47 54 56 58 61 57 56 59 52 54 88
44 26 6 -7 -16 -25 2 5 1 6 20 28 28 31 32 42 46 56 61 70 78 84 91 85 89 89 93 95 81 58 46 54 61 65 61 59 54 51 58 60 70 78 92
0 -4 -9 4 20 27 20 16 24 31 40 33 34 43 39 40 57 74 80 90 95 102 90 78 77 83 84 86 79 61 59 60 64 67 65 51 51 54 62 72 71 75 83
-7 12 26 24 33 54 68 50 55 44 39 53 52 56 65 76 67 73 66 65 68 59 59 76 89 100 108 116 105 82 71 68 71 63 63 60 60 63 68 73 77 85 95
29 35 35 39 45 53 66 83 68 59 71 79 74 66 51 66 76 69 56 53 50 50 72 77 91 104 117 118 112 100 88 78 72 69 66 61 63 70 76 80 91 95 99
40 41 44 47 51 55 64 67 61 47 55 58 56 56 62 57 72 56 47 42 35 62 81 89 96 105 117 119 115 102 95 79 71 70 71 68 70 79 60 89 96 103 103
58 61 54 56 57 60 71 72 69 64 57 51 43 55 53 46 52 48 43 44 62 81 93 93 90 103 116 118 109 108 99 86 81 76 73 78 83 94 100 107 114 98 105
92 79 73 80 77 79 84 82 73 72 67 72 75 58 47 45 39 38 50 71 67 66 72 90 105 119 129 122 111 106 102 99 83 77 71 65 80 93 99 119 116 58 58
100 92 94 93 91 99 91 88 84 76 72 66 65 64 87 75 74 70 89 93 85 78 82 97 109 123 137 136 118 110 109 102 96 87 75 77 78 71 87 90 111 118 120
136 122 102 106 102 97 97 92 85 83 76 70 67 75 68 94 75 81 92 92 92 97 106 114 121 133 142 143 121 116 102 93 82 75 83 89 67 54 102 118 124 124 123
161 141 136 119 112 111 105 100 99 90 82 78 74 78 61 88 87 84 94 98 104 117 132 134 136 145 153 147 128 95 84 73 77 86 93 58 29 67 80 114 115 121 131
185 163 143 133 124 111 113 112 110 94 88 84 83 86 91 97 98 102 106 111 114 123 134 141 142 145 152 141 132 123 86 86 87 96 7 -12 15 52 111 125 133 139 145
248 223 195 145 147 122 118 120 106 82 86 89 91 96 98 97 101 101 104 111 118 126 135 139 141 135 132 129 126 117 112 94 92 73 -1 5 43 65 126 139 168 185 188
253 232 212 181 183 146 115 121 106 96 99 102 101 107 106 108 107 108 103 115 118 126 133 138 138 121 106 98 90 85 87 33 37 25 35 104 124 124 137 139 129 162 137
247 210 189 207 205 155 148 127 108 112 117 119 119 122 126 126 110 115 109 112 113 124 128 140 133 107 91 86 78 53 18 12 6 -14 -44 83 102 108 114 127 110 132 129
Wind_Speed
47 44 45 45 43 41 42 45 45 45 45 47 43 42 41 42 41 41 44 49 50 50 51 51 53 52 54 54 52 52 51 52 60 56 50 51 43 49 56 57 53 54 58
44 40 42 41 41 41 43 43 43 42 42 41 41 42 46 47 46 44 43 45 47 50 47 46 46 47 47 45 45 45 45 46 51 59 55 49 53 54 52 52 53 53 55
40 39 40 40 40 40 40 40 40 39 40 40 41 43 45 45 43 43 42 39 38 37 41 38 38 37 37 37 39 40 42 44 46 47 51 51 50 46 47 49 51 53 56
37 37 37 37 36 37 39 39 39 39 40 40 41 43 43 43 43 40 39 40 37 33 32 32 33 34 33 34 37 36 40 42 46 47 49 49 47 46 48 55 60 59 66
35 36 36 34 34 34 35 37 38 39 39 39 40 44 44 44 42 41 39 36 36 34 33 32 31 31 33 38 38 38 38 43 44 43 47 48 51 55 58 54 62 62 64
35 34 33 32 31 32 33 35 35 38 39 40 44 45 45 44 43 40 39 37 37 37 35 34 32 35 37 35 36 40 39 41 41 43 47 53 55 56 51 53 55 61 61
33 32 30 31 31 31 31 31 33 35 36 40 43 44 46 47 47 45 43 39 37 37 35 33 30 35 38 39 35 35 39 40 40 41 46 45 48 49 45 50 52 55 58
30 28 28 29 27 27 26 28 32 35 36 39 42 43 45 46 47 47 46 44 42 41 39 38 35 34 34 36 39 37 35 36 37 41 42 41 42 40 42 44 47 49 52
26 26 25 24 24 24 25 27 32 35 36 40 41 42 44 44 46 46 45 43 41 40 38 38 37 34 36 39 42 40 39 42 43 40 39 38 36 36 36 38 46 51 56
23 22 21 21 23 23 25 28 32 34 37 38 40 41 42 43 44 44 39 38 41 39 36 37 42 41 43 44 44 42 42 41 41 41 38 39 37 36 35 34 39 47 54
18 19 20 21 23 25 27 29 32 34 35 37 39 40 40 42 44 46 46 44 44 43 42 42 41 44 45 43 42 38 37 37 38 38 40 41 40 39 38 40 44 47 51
16 19 21 23 24 25 27 29 30 31 33 35 36 38 39 41 42 44 46 47 48 47 46 45 45 46 44 41 38 37 36 37 37 39 41 42 41 43 39 44 48 49 46
16 18 20 22 23 24 25 26 27 29 31 33 34 36 38 39 40 42 45 46 47 47 44 45 44 44 42 41 36 37 36 36 39 40 41 42 42 40 41 43 44 45 46
16 16 18 19 21 23 25 25 27 29 31 32 34 36 38 39 42 46 48 51 51 50 50 48 44 42 39 37 36 36 35 36 38 39 41 43 42 42 40 45 50 51 52
14 14 15 17 20 23 26 28 28 31 32 30 35 37 40 40 43 46 48 49 49 48 49 45 43 42 42 41 39 38 38 39 42 42 44 45 45 45 44 48 50 52 52
11 12 13 16 18 20 23 28 31 31 33 34 36 38 40 41 43 46 48 48 47 46 46 45 44 44 43 43 42 43 42 42 43 44 45 44 43 46 50 51 52 53 56
7 8 10 12 15 17 19 22 26 29 32 33 35 38 41 42 42 45 46 46 45 43 44 45 44 42 42 43 42 42 42 43 45 46 44 45 44 48 57 55 55 54 55
4 5 7 10 13 15 17 20 22 26 30 31 31 36 38 42 42 43 45 48 47 42 42 43 41 41 42 43 42 43 44 46 47 47 46 45 45 52 60 57 56 55 53
5 3 5 11 13 15 18 21 24 26 29 32 34 34 35 39 41 41 42 45 47 46 44 41 40 41 42 43 42 44 46 49 50 50 50 47 51 58 61 55 48 47 53
2 1 7 10 13 15 15 17 22 25 29 31 32 34 36 39 43 43 41 42 43 43 43 41 42 42 42 44 44 45 48 50 51 50 50 52 57 65 62 60 49 45 44
5 6 7 10 11 14 17 19 21 23 27 29 32 34 37 39 41 43 43 43 43 42 42 42 43 44 43 43 44 46 48 48 48 46 46 50 65 70 57 47 41 40 41
9 10 11 11 12 14 17 20 23 23 26 29 32 34 35 37 40 42 42 41 42 41 41 42 42 42 42 42 41 44 44 43 43 43 47 66 72 67 64 44 40 40 40
18 16 16 16 14 16 19 20 24 23 26 29 30 34 35 38 40 41 41 42 42 42 42 42 40 42 40 38 37 37 37 37 36 35 36 68 73 71 56 41 38 36 38
25 23 20 19 19 20 20 23 26 24 27 30 31 34 37 38 41 42 43 44 43 43 42 42 42 42 40 38 36 31 31 28 26 12 45 55 42 27 25 31 33 32 35
27 25 24 23 21 22 25 28 28 27 28 29 31 35 37 39 42 44 44 44 43 43 42 42 43 41 38 35 35 30 26 20 13 27 33 16 19 22 29 33 36 39 41
28 27 25 24 25 26 29 30 29 27 28 28 32 35 38 41 42 44 44 45 43 42 43 44 43 41 38 34 30 25 23 18 13 44 52 32 35 45 48 40 41 46 44
Wind_Direction
311 316 317 317 318 320 319 319 319 324 329 331 336 338 340 338 336 331 324 317 311 307 304 300 297 297 295 296 298 298 298 300 296 301 315 307 314 312 310 312 315 316 316
317 321 320 322 323 323 322 323 329 333 340 344 344 344 340 340 338 336 333 327 318 310 308 304 302 303 302 303 302 302 304 306 305 301 307 309 311 313 316 317 319 320 320
324 325 323 322 325 326 328 332 340 346 351 355 354 349 348 350 351 348 347 350 342 330 315 311 308 307 308 309 311 309 311 314 315 314 312 313 316 320 321 323 324 325 325
327 329 329 331 331 329 333 341 346 352 355 0 1 359 357 359 359 3 1 1 11 11 358 338 322 314 314 312 315 313 316 318 318 318 318 320 322 325 325 324 324 326 324
332 333 333 333 337 339 343 350 356 0 2 4 6 6 5 6 6 6 12 17 17 19 31 18 354 336 323 313 313 317 322 321 321 323 322 324 324 324 324 331 327 331 330
334 333 334 338 342 343 351 356 2 4 6 8 5 10 16 21 23 22 24 27 26 30 19 18 16 351 340 340 326 321 328 329 328 329 328 325 325 328 338 337 337 336 336
333 336 340 338 338 346 357 4 11 14 17 16 16 21 24 29 32 36 30 28 30 33 34 27 21 355 343 336 342 342 336 335 336 339 335 338 338 340 344 342 342 341 338
341 342 338 342 358 4 11 16 23 23 22 26 28 30 34 35 37 39 38 37 33 31 34 29 25 17 6 352 346 349 350 351 346 342 343 345 347 351 351 349 349 348 346
345 348 355 9 15 19 22 22 29 32 30 35 36 37 36 36 36 38 38 37 35 30 31 26 21 20 10 0 349 348 347 344 343 348 351 352 354 355 356 356 350 349 347
349 5 14 19 25 34 36 38 40 37 36 38 39 40 38 36 32 29 34 32 25 26 25 18 8 3 357 353 351 348 345 346 348 349 354 355 359 0 2 1 355 349 345
8 22 33 41 43 47 47 44 43 43 40 38 36 35 34 30 26 22 19 18 13 11 8 5 5 0 357 356 355 354 353 353 353 353 353 356 0 2 4 1 354 348 344
38 47 57 57 52 51 49 43 42 37 35 34 33 28 27 24 23 19 16 12 7 5 4 5 2 358 359 359 0 1 360 359 358 355 353 354 357 355 359 351 346 343 343
60 64 58 60 61 55 46 44 34 33 31 32 28 25 21 19 19 17 15 13 10 8 8 5 4 2 2 2 5 2 3 1 356 354 353 353 355 357 354 350 350 349 346
72 67 64 54 44 37 35 29 25 23 25 28 21 18 15 15 12 10 7 5 4 5 3 2 4 5 6 5 4 3 2 359 355 352 351 351 356 356 355 349 346 347 347
75 64 52 47 45 33 15 11 19 11 19 28 15 11 9 9 7 6 4 4 4 4 3 6 6 6 3 1 1 359 358 355 351 350 348 348 351 352 350 344 343 345 345
77 69 61 51 46 31 16 8 13 14 14 20 14 7 5 7 6 4 4 4 6 7 7 5 4 3 0 357 355 352 351 350 349 347 346 347 348 347 343 341 339 340 340
84 64 47 41 35 26 23 22 14 13 11 13 13 7 3 2 6 5 6 6 6 8 6 4 3 2 359 356 355 352 350 348 346 344 344 344 344 341 338 339 339 339 338
82 66 48 25 19 19 24 21 17 8 7 7 13 8 6 3 5 6 6 5 6 8 5 4 3 360 357 355 354 351 348 346 343 342 340 341 340 335 334 338 341 341 342
113 71 19 355 360 4 9 9 6 4 2 4 6 7 6 4 4 5 6 6 3 3 3 2 1 358 355 353 351 349 346 343 341 339 338 338 335 331 331 337 344 345 344
133 2 337 342 348 357 11 14 6 1 358 359 1 3 3 1 360 1 5 4 2 1 0 359 356 353 351 350 348 346 343 341 340 338 337 334 331 324 330 333 343 345 346
252 288 309 324 337 341 346 352 360 0 355 355 357 359 358 358 357 357 358 359 358 358 357 355 352 350 348 347 346 344 342 341 342 341 339 336 322 318 334 341 345 346 345
254 272 289 303 321 333 337 343 347 352 352 351 352 355 356 357 356 354 355 356 355 355 354 351 349 348 347 345 344 343 343 342 343 343 339 319 308 321 328 344 346 345 344
264 269 279 292 304 318 327 332 337 343 345 346 350 351 353 352 353 352 352 352 352 352 351 349 348 346 346 345 343 342 341 341 343 344 262 284 300 315 336 344 344 342 342
264 269 274 284 295 305 315 322 327 335 338 341 344 346 347 350 350 350 349 349 349 349 349 348 347 346 346 344 343 342 341 341 343 315 256 266 261 265 335 337 334 329 334
259 264 271 277 286 297 305 314 321 328 332 337 340 342 345 347 347 347 347 347 348 349 349 349 348 347 346 344 343 343 341 333 309 249 252 293 314 320 330 332 331 335 334
256 259 265 276 285 293 301 309 315 322 327 332 335 339 341 343 345 345 346 346 347 348 348 349 349 348 347 347 345 341 339 334 287 258 265 338 334 335 335 332 331 334 332